TimePST,TemperatureF,Dew PointF,Humidity,Sea Level PressureIn,VisibilityMPH,Wind Direction,Wind SpeedMPH,Gust SpeedMPH,PrecipitationIn,Events,Conditions,WindDirDegrees,DateUTC
12:56 AM,54.0,46.0,75,29.82,10.0,West,8.1,-,0.00,,Overcast,280,2012-11-20 08:56:00
1:56 AM,52.0,46.0,80,29.86,10.0,WNW,11.5,-,N/A,,Overcast,300,2012-11-20 09:56:00
2:56 AM,50.0,46.9,89,29.86,10.0,SE,8.1,-,0.00,Rain,Light Rain,130,2012-11-20 10:56:00
3:56 AM,50.0,46.0,86,29.82,10.0,East,8.1,-,0.00,,Mostly Cloudy,90,2012-11-20 11:56:00
4:56 AM,50.0,46.0,86,29.81,10.0,East,5.8,-,0.00,Rain,Light Rain,90,2012-11-20 12:56:00
5:56 AM,50.0,45.0,83,29.80,10.0,East,4.6,-,0.00,,Overcast,80,2012-11-20 13:56:00
6:56 AM,48.0,46.0,93,29.78,10.0,Calm,Calm,-,0.01,Rain,Light Rain,0,2012-11-20 14:56:00
7:56 AM,48.9,45.0,86,29.77,10.0,SSE,3.5,-,0.00,Rain,Light Rain,160,2012-11-20 15:56:00
8:56 AM,48.9,46.0,90,29.75,10.0,Calm,Calm,-,0.00,Rain,Light Rain,0,2012-11-20 16:56:00
9:56 AM,48.9,46.9,93,29.75,10.0,Calm,Calm,-,0.00,,Overcast,0,2012-11-20 17:56:00
10:56 AM,50.0,46.9,89,29.73,10.0,Calm,Calm,-,0.00,,Overcast,0,2012-11-20 18:56:00
11:56 AM,50.0,46.4,87,29.72,10.0,Calm,Calm,-,N/A,Rain,Light Rain,0,2012-11-20 19:56:00
12:56 PM,51.1,46.9,86,29.73,10.0,East,3.5,-,0.01,,Overcast,90,2012-11-20 20:56:00
1:56 PM,52.0,48.0,86,29.73,10.0,Variable,3.5,-,N/A,,Partly Cloudy,0,2012-11-20 21:56:00
2:56 PM,51.1,48.0,89,29.74,10.0,ESE,3.5,-,0.00,,Mostly Cloudy,110,2012-11-20 22:56:00
3:56 PM,51.1,48.0,89,29.74,10.0,East,6.9,-,N/A,,Scattered Clouds,90,2012-11-20 23:56:00
4:56 PM,48.9,46.9,93,29.74,10.0,Calm,Calm,-,N/A,,Scattered Clouds,0,2012-11-21 00:56:00
5:56 PM,48.9,46.0,90,29.75,10.0,West,10.4,-,N/A,,Mostly Cloudy,280,2012-11-21 01:56:00
6:56 PM,54.0,45.0,72,29.76,10.0,NW,3.5,-,N/A,,Overcast,320,2012-11-21 02:56:00
7:56 PM,53.1,45.0,74,29.76,10.0,Calm,Calm,-,0.00,Rain,Light Rain,0,2012-11-21 03:56:00
8:56 PM,52.0,44.1,74,29.76,10.0,Calm,Calm,-,0.00,,Overcast,0,2012-11-21 04:56:00
9:56 PM,53.1,42.1,66,29.76,10.0,Calm,Calm,-,N/A,,Overcast,0,2012-11-21 05:56:00
10:56 PM,52.0,42.1,69,29.73,10.0,Calm,Calm,-,N/A,,Overcast,0,2012-11-21 06:56:00
11:56 PM,51.1,44.1,77,29.72,10.0,Calm,Calm,-,N/A,,Overcast,0,2012-11-21 07:56:00